Year,Month,Day,Hour,Minute,Value (Times are PST for temperature in C)
2017,06,25,00,00,19.40
2017,06,25,00,01,19.40
2017,06,25,00,02,19.40
2017,06,25,00,03,19.40
2017,06,25,00,04,19.40
2017,06,25,00,05,19.40
2017,06,25,00,06,19.40
2017,06,25,00,07,19.40
2017,06,25,00,08,19.40
2017,06,25,00,09,19.40
2017,06,25,00,10,19.40
2017,06,25,00,11,19.40
2017,06,25,00,12,19.40
2017,06,25,00,13,19.40
2017,06,25,00,14,19.40
2017,06,25,00,15,19.40
2017,06,25,00,16,19.30
2017,06,25,00,17,19.30
2017,06,25,00,18,19.30
2017,06,25,00,19,19.30
2017,06,25,00,20,19.30
2017,06,25,00,21,19.30
2017,06,25,00,22,19.30
2017,06,25,00,23,19.30
2017,06,25,00,24,19.30
2017,06,25,00,25,19.30
2017,06,25,00,26,19.30
2017,06,25,00,27,19.30
2017,06,25,00,28,19.30
2017,06,25,00,29,19.30
2017,06,25,00,30,19.30
2017,06,25,00,31,19.30
2017,06,25,00,32,19.30
2017,06,25,00,33,19.30
2017,06,25,00,34,19.30
2017,06,25,00,35,19.30
2017,06,25,00,36,19.40
2017,06,25,00,37,19.40
2017,06,25,00,38,19.50
2017,06,25,00,39,19.50
2017,06,25,00,40,19.50
2017,06,25,00,41,19.60
2017,06,25,00,42,19.60
2017,06,25,00,43,19.60
2017,06,25,00,44,19.60
2017,06,25,00,45,19.70
2017,06,25,00,46,19.70
2017,06,25,00,47,19.70
2017,06,25,00,48,19.70
2017,06,25,00,49,19.60
2017,06,25,00,50,19.60
2017,06,25,00,51,19.60
2017,06,25,00,52,19.70
2017,06,25,00,53,19.70
2017,06,25,00,54,19.70
2017,06,25,00,55,19.70
2017,06,25,00,56,19.70
2017,06,25,00,57,19.70
2017,06,25,00,58,19.70
2017,06,25,00,59,19.70
2017,06,25,01,00,19.70
2017,06,25,01,01,19.70
2017,06,25,01,02,19.70
2017,06,25,01,03,19.70
2017,06,25,01,04,19.70
2017,06,25,01,05,19.70
2017,06,25,01,06,19.80
2017,06,25,01,07,19.80
2017,06,25,01,08,19.90
2017,06,25,01,09,19.90
2017,06,25,01,10,19.90
2017,06,25,01,11,20.00
2017,06,25,01,12,20.10
2017,06,25,01,13,20.10
2017,06,25,01,14,20.10
2017,06,25,01,15,20.10
2017,06,25,01,16,20.00
2017,06,25,01,17,19.90
2017,06,25,01,18,19.90
2017,06,25,01,19,19.90
2017,06,25,01,20,19.80
2017,06,25,01,21,19.70
2017,06,25,01,22,19.70
2017,06,25,01,23,19.60
2017,06,25,01,24,19.60
2017,06,25,01,25,19.60
2017,06,25,01,26,19.50
2017,06,25,01,27,19.50
2017,06,25,01,28,19.50
2017,06,25,01,29,19.50
2017,06,25,01,30,19.50
2017,06,25,01,31,19.50
2017,06,25,01,32,19.50
2017,06,25,01,33,19.50
2017,06,25,01,34,19.50
2017,06,25,01,35,19.50
2017,06,25,01,36,19.50
2017,06,25,01,37,19.50
2017,06,25,01,38,19.60
2017,06,25,01,39,19.60
2017,06,25,01,40,19.70
2017,06,25,01,41,19.70
2017,06,25,01,42,19.70
2017,06,25,01,43,19.80
2017,06,25,01,44,19.80
2017,06,25,01,45,19.80
2017,06,25,01,46,19.80
2017,06,25,01,47,19.80
2017,06,25,01,48,19.90
2017,06,25,01,49,19.90
2017,06,25,01,50,19.90
2017,06,25,01,51,19.90
2017,06,25,01,52,19.90
2017,06,25,01,53,19.90
2017,06,25,01,54,19.90
2017,06,25,01,55,19.90
2017,06,25,01,56,19.90
2017,06,25,01,57,19.90
2017,06,25,01,58,19.90
2017,06,25,01,59,20.00
2017,06,25,02,00,20.10
2017,06,25,02,01,20.10
2017,06,25,02,02,20.10
2017,06,25,02,03,20.10
2017,06,25,02,04,20.10
2017,06,25,02,05,20.10
2017,06,25,02,06,20.00
2017,06,25,02,07,19.90
2017,06,25,02,08,19.90
2017,06,25,02,09,19.90
2017,06,25,02,10,19.90
2017,06,25,02,11,19.90
2017,06,25,02,12,19.90
2017,06,25,02,13,19.80
2017,06,25,02,14,19.80
2017,06,25,02,15,19.80
2017,06,25,02,16,19.80
2017,06,25,02,17,19.80
2017,06,25,02,18,19.80
2017,06,25,02,19,19.80
2017,06,25,02,20,19.80
2017,06,25,02,21,19.90
2017,06,25,02,22,19.90
2017,06,25,02,23,19.80
2017,06,25,02,24,19.80
2017,06,25,02,25,19.70
2017,06,25,02,26,19.70
2017,06,25,02,27,19.60
2017,06,25,02,28,19.60
2017,06,25,02,29,19.60
2017,06,25,02,30,19.50
2017,06,25,02,31,19.50
2017,06,25,02,32,19.50
2017,06,25,02,33,19.50
2017,06,25,02,34,19.50
2017,06,25,02,35,19.50
2017,06,25,02,36,19.40
2017,06,25,02,37,19.40
2017,06,25,02,38,19.40
2017,06,25,02,39,19.30
2017,06,25,02,40,19.30
2017,06,25,02,41,19.30
2017,06,25,02,42,19.30
2017,06,25,02,43,19.20
2017,06,25,02,44,19.20
2017,06,25,02,45,19.20
2017,06,25,02,46,19.30
2017,06,25,02,47,19.30
2017,06,25,02,48,19.40
2017,06,25,02,49,19.40
2017,06,25,02,50,19.40
2017,06,25,02,51,19.40
2017,06,25,02,52,19.40
2017,06,25,02,53,19.50
2017,06,25,02,54,19.50
2017,06,25,02,55,19.50
2017,06,25,02,56,19.50
2017,06,25,02,57,19.50
2017,06,25,02,58,19.50
2017,06,25,02,59,19.40
2017,06,25,03,00,19.40
2017,06,25,03,01,19.40
2017,06,25,03,02,19.40
2017,06,25,03,03,19.40
2017,06,25,03,04,19.40
2017,06,25,03,05,19.50
2017,06,25,03,06,19.50
2017,06,25,03,07,19.50
2017,06,25,03,08,19.50
2017,06,25,03,09,19.50
2017,06,25,03,10,19.50
2017,06,25,03,11,19.50
2017,06,25,03,12,19.50
2017,06,25,03,13,19.50
2017,06,25,03,14,19.50
2017,06,25,03,15,19.50
2017,06,25,03,16,19.50
2017,06,25,03,17,19.40
2017,06,25,03,18,19.40
2017,06,25,03,19,19.40
2017,06,25,03,20,19.40
2017,06,25,03,21,19.40
2017,06,25,03,22,19.30
2017,06,25,03,23,19.30
2017,06,25,03,24,19.20
2017,06,25,03,25,19.20
2017,06,25,03,26,19.20
2017,06,25,03,27,19.20
2017,06,25,03,28,19.20
2017,06,25,03,29,19.30
2017,06,25,03,30,19.30
2017,06,25,03,31,19.30
2017,06,25,03,32,19.40
2017,06,25,03,33,19.40
2017,06,25,03,34,19.50
2017,06,25,03,35,19.50
2017,06,25,03,36,19.50
2017,06,25,03,37,19.50
2017,06,25,03,38,19.50
2017,06,25,03,39,19.50
2017,06,25,03,40,19.50
2017,06,25,03,41,19.50
2017,06,25,03,42,19.60
2017,06,25,03,43,19.60
2017,06,25,03,44,19.50
2017,06,25,03,45,19.50
2017,06,25,03,46,19.50
2017,06,25,03,47,19.50
2017,06,25,03,48,19.50
2017,06,25,03,49,19.60
2017,06,25,03,50,19.60
2017,06,25,03,51,19.60
2017,06,25,03,52,19.70
2017,06,25,03,53,19.70
2017,06,25,03,54,19.70
2017,06,25,03,55,19.70
2017,06,25,03,56,19.60
2017,06,25,03,57,19.60
2017,06,25,03,58,19.60
2017,06,25,03,59,19.60
2017,06,25,04,00,19.60
2017,06,25,04,01,19.60
2017,06,25,04,02,19.60
2017,06,25,04,03,19.60
2017,06,25,04,04,19.60
2017,06,25,04,05,19.70
2017,06,25,04,06,19.70
2017,06,25,04,07,19.70
2017,06,25,04,08,19.70
2017,06,25,04,09,19.80
2017,06,25,04,10,19.80
2017,06,25,04,11,19.80
2017,06,25,04,12,19.80
2017,06,25,04,13,19.80
2017,06,25,04,14,19.80
2017,06,25,04,15,19.80
2017,06,25,04,16,19.70
2017,06,25,04,17,19.70
2017,06,25,04,18,19.60
2017,06,25,04,19,19.60
2017,06,25,04,20,19.50
2017,06,25,04,21,19.50
2017,06,25,04,22,19.50
2017,06,25,04,23,19.50
2017,06,25,04,24,19.40
2017,06,25,04,25,19.40
2017,06,25,04,26,19.40
2017,06,25,04,27,19.40
2017,06,25,04,28,19.30
2017,06,25,04,29,19.30
2017,06,25,04,30,19.30
2017,06,25,04,31,19.30
2017,06,25,04,32,19.30
2017,06,25,04,33,19.30
2017,06,25,04,34,19.20
2017,06,25,04,35,19.20
2017,06,25,04,36,19.30
2017,06,25,04,37,19.30
2017,06,25,04,38,19.30
2017,06,25,04,39,19.30
2017,06,25,04,40,19.30
2017,06,25,04,41,19.30
2017,06,25,04,42,19.30
2017,06,25,04,43,19.20
2017,06,25,04,44,19.30
2017,06,25,04,45,19.30
2017,06,25,04,46,19.30
2017,06,25,04,47,19.30
2017,06,25,04,48,19.30
2017,06,25,04,49,19.30
2017,06,25,04,50,19.30
2017,06,25,04,51,19.20
2017,06,25,04,52,19.20
2017,06,25,04,53,19.20
2017,06,25,04,54,19.30
2017,06,25,04,55,19.30
2017,06,25,04,56,19.30
2017,06,25,04,57,19.30
2017,06,25,04,58,19.40
2017,06,25,04,59,19.40
2017,06,25,05,00,19.40
2017,06,25,05,01,19.40
2017,06,25,05,02,19.40
2017,06,25,05,03,19.40
2017,06,25,05,04,19.40
2017,06,25,05,05,19.40
2017,06,25,05,06,19.40
2017,06,25,05,07,19.30
2017,06,25,05,08,19.30
2017,06,25,05,09,19.30
2017,06,25,05,10,19.20
2017,06,25,05,11,19.10
2017,06,25,05,12,19.10
2017,06,25,05,13,19.10
2017,06,25,05,14,19.10
2017,06,25,05,15,19.10
2017,06,25,05,16,19.00
2017,06,25,05,17,18.90
2017,06,25,05,18,18.90
2017,06,25,05,19,18.90
2017,06,25,05,20,18.80
2017,06,25,05,21,18.80
2017,06,25,05,22,18.80
2017,06,25,05,23,18.80
2017,06,25,05,24,18.90
2017,06,25,05,25,18.90
2017,06,25,05,26,18.90
2017,06,25,05,27,18.90
2017,06,25,05,28,19.10
2017,06,25,05,29,19.10
2017,06,25,05,30,19.10
2017,06,25,05,31,19.10
2017,06,25,05,32,19.10
2017,06,25,05,33,19.10
2017,06,25,05,34,19.10
2017,06,25,05,35,19.10
2017,06,25,05,36,19.10
2017,06,25,05,37,19.10
2017,06,25,05,38,19.00
2017,06,25,05,39,18.90
2017,06,25,05,40,18.90
2017,06,25,05,41,18.90
2017,06,25,05,42,18.90
2017,06,25,05,43,18.90
2017,06,25,05,44,18.90
2017,06,25,05,45,18.90
2017,06,25,05,46,18.90
2017,06,25,05,47,18.90
2017,06,25,05,48,18.90
2017,06,25,05,49,18.90
2017,06,25,05,50,19.00
2017,06,25,05,51,19.10
2017,06,25,05,52,19.10
2017,06,25,05,53,19.10
2017,06,25,05,54,19.10
2017,06,25,05,55,19.20
2017,06,25,05,56,19.20
2017,06,25,05,57,19.30
2017,06,25,05,58,19.30
2017,06,25,05,59,19.40
2017,06,25,06,00,19.40
2017,06,25,06,01,19.40
2017,06,25,06,02,19.50
2017,06,25,06,03,19.50
2017,06,25,06,04,19.50
2017,06,25,06,05,19.50
2017,06,25,06,06,19.50
2017,06,25,06,07,19.50
2017,06,25,06,08,19.60
2017,06,25,06,09,19.60
2017,06,25,06,10,19.60
2017,06,25,06,11,19.70
2017,06,25,06,12,19.70
2017,06,25,06,13,19.80
2017,06,25,06,14,19.90
2017,06,25,06,15,20.00
2017,06,25,06,16,20.10
2017,06,25,06,17,20.20
2017,06,25,06,18,20.20
2017,06,25,06,19,20.40
2017,06,25,06,20,20.50
2017,06,25,06,21,20.50
2017,06,25,06,22,20.60
2017,06,25,06,23,20.60
2017,06,25,06,24,20.60
2017,06,25,06,25,20.70
2017,06,25,06,26,20.70
2017,06,25,06,27,20.80
2017,06,25,06,28,20.80
2017,06,25,06,29,20.80
2017,06,25,06,30,20.80
2017,06,25,06,31,20.80
2017,06,25,06,32,20.90
2017,06,25,06,33,20.90
2017,06,25,06,34,20.90
2017,06,25,06,35,20.90
2017,06,25,06,36,20.90
2017,06,25,06,37,20.90
2017,06,25,06,38,20.90
2017,06,25,06,39,20.80
2017,06,25,06,40,20.80
2017,06,25,06,41,20.70
2017,06,25,06,42,20.70
2017,06,25,06,43,20.60
2017,06,25,06,44,20.50
2017,06,25,06,45,20.50
2017,06,25,06,46,20.40
2017,06,25,06,47,20.40
2017,06,25,06,48,20.30
2017,06,25,06,49,20.30
2017,06,25,06,50,20.30
2017,06,25,06,51,20.20
2017,06,25,06,52,20.20
2017,06,25,06,53,20.30
2017,06,25,06,54,20.30
2017,06,25,06,55,20.40
2017,06,25,06,56,20.50
2017,06,25,06,57,20.70
2017,06,25,06,58,20.90
2017,06,25,06,59,21.00
2017,06,25,07,00,21.20
2017,06,25,07,01,21.30
2017,06,25,07,02,21.50
2017,06,25,07,03,21.70
2017,06,25,07,04,21.90
2017,06,25,07,05,22.00
2017,06,25,07,06,22.10
2017,06,25,07,07,22.30
2017,06,25,07,08,22.50
2017,06,25,07,09,22.60
2017,06,25,07,10,22.80
2017,06,25,07,11,22.90
2017,06,25,07,12,23.00
2017,06,25,07,13,23.10
2017,06,25,07,14,23.00
2017,06,25,07,15,22.90
2017,06,25,07,16,22.70
2017,06,25,07,17,22.50
2017,06,25,07,18,22.20
2017,06,25,07,19,22.00
2017,06,25,07,20,21.70
2017,06,25,07,21,21.50
2017,06,25,07,22,21.30
2017,06,25,07,23,21.20
2017,06,25,07,24,21.00
2017,06,25,07,25,20.80
2017,06,25,07,26,20.80
2017,06,25,07,27,20.70
2017,06,25,07,28,20.60
2017,06,25,07,29,20.50
2017,06,25,07,30,20.40
2017,06,25,07,31,20.40
2017,06,25,07,32,20.30
2017,06,25,07,33,20.20
2017,06,25,07,34,20.20
2017,06,25,07,35,20.20
2017,06,25,07,36,20.00
2017,06,25,07,37,19.90
2017,06,25,07,38,19.80
2017,06,25,07,39,19.80
2017,06,25,07,40,19.70
2017,06,25,07,41,19.70
2017,06,25,07,42,19.80
2017,06,25,07,43,19.90
2017,06,25,07,44,19.90
2017,06,25,07,45,20.10
2017,06,25,07,46,20.10
2017,06,25,07,47,20.20
2017,06,25,07,48,20.20
2017,06,25,07,49,20.20
2017,06,25,07,50,20.20
2017,06,25,07,51,20.20
2017,06,25,07,52,20.30
2017,06,25,07,53,20.40
2017,06,25,07,54,20.40
2017,06,25,07,55,20.60
2017,06,25,07,56,20.70
2017,06,25,07,57,20.90
2017,06,25,07,58,21.00
2017,06,25,07,59,21.20
2017,06,25,08,00,21.30
2017,06,25,08,01,21.40
2017,06,25,08,02,21.50
2017,06,25,08,03,21.60
2017,06,25,08,04,21.60
2017,06,25,08,05,21.70
2017,06,25,08,06,21.70
2017,06,25,08,07,21.80
2017,06,25,08,08,21.80
2017,06,25,08,09,21.90
2017,06,25,08,10,22.00
2017,06,25,08,11,22.10
2017,06,25,08,12,22.10
2017,06,25,08,13,22.20
2017,06,25,08,14,22.30
2017,06,25,08,15,22.30
2017,06,25,08,16,22.40
2017,06,25,08,17,22.40
2017,06,25,08,18,22.50
2017,06,25,08,19,22.50
2017,06,25,08,20,22.50
2017,06,25,08,21,22.40
2017,06,25,08,22,22.30
2017,06,25,08,23,22.30
2017,06,25,08,24,22.30
2017,06,25,08,25,22.40
2017,06,25,08,26,22.50
2017,06,25,08,27,22.60
2017,06,25,08,28,22.60
2017,06,25,08,29,22.70
2017,06,25,08,30,22.60
2017,06,25,08,31,22.50
2017,06,25,08,32,22.30
2017,06,25,08,33,22.20
2017,06,25,08,34,22.00
2017,06,25,08,35,21.90
2017,06,25,08,36,21.90
2017,06,25,08,37,21.80
2017,06,25,08,38,21.80
2017,06,25,08,39,21.90
2017,06,25,08,40,22.00
2017,06,25,08,41,22.10
2017,06,25,08,42,22.20
2017,06,25,08,43,22.30
2017,06,25,08,44,22.40
2017,06,25,08,45,22.50
2017,06,25,08,46,22.70
2017,06,25,08,47,22.80
2017,06,25,08,48,22.90
2017,06,25,08,49,22.90
2017,06,25,08,50,22.90
2017,06,25,08,51,22.90
2017,06,25,08,52,22.90
2017,06,25,08,53,22.90
2017,06,25,08,54,22.80
2017,06,25,08,55,22.80
2017,06,25,08,56,22.70
2017,06,25,08,57,22.70
2017,06,25,08,58,22.80
2017,06,25,08,59,22.90
2017,06,25,09,00,22.90
2017,06,25,09,01,23.00
2017,06,25,09,02,22.90
2017,06,25,09,03,22.90
2017,06,25,09,04,22.90
2017,06,25,09,05,22.90
2017,06,25,09,06,22.90
2017,06,25,09,07,22.90
2017,06,25,09,08,22.90
2017,06,25,09,09,22.80
2017,06,25,09,10,22.80
2017,06,25,09,11,22.80
2017,06,25,09,12,22.70
2017,06,25,09,13,22.70
2017,06,25,09,14,22.80
2017,06,25,09,15,22.70
2017,06,25,09,16,22.70
2017,06,25,09,17,22.60
2017,06,25,09,18,22.40
2017,06,25,09,19,22.30
2017,06,25,09,20,22.10
2017,06,25,09,21,22.10
2017,06,25,09,22,22.10
2017,06,25,09,23,22.10
2017,06,25,09,24,22.20
2017,06,25,09,25,22.10
2017,06,25,09,26,22.10
2017,06,25,09,27,22.20
2017,06,25,09,28,22.20
2017,06,25,09,29,22.10
2017,06,25,09,30,22.00
2017,06,25,09,31,21.90
2017,06,25,09,32,21.80
2017,06,25,09,33,21.80
2017,06,25,09,34,21.90
2017,06,25,09,35,22.00
2017,06,25,09,36,22.00
2017,06,25,09,37,22.10
2017,06,25,09,38,22.10
2017,06,25,09,39,22.10
2017,06,25,09,40,22.20
2017,06,25,09,41,22.30
2017,06,25,09,42,22.30
2017,06,25,09,43,22.30
2017,06,25,09,44,22.30
2017,06,25,09,45,22.40
2017,06,25,09,46,22.50
2017,06,25,09,47,22.50
2017,06,25,09,48,22.50
2017,06,25,09,49,22.60
2017,06,25,09,50,22.70
2017,06,25,09,51,22.60
2017,06,25,09,52,22.60
2017,06,25,09,53,22.60
2017,06,25,09,54,22.60
2017,06,25,09,55,22.60
2017,06,25,09,56,22.60
2017,06,25,09,57,22.50
2017,06,25,09,58,22.40
2017,06,25,09,59,22.40
2017,06,25,10,00,22.40
2017,06,25,10,01,22.30
2017,06,25,10,02,22.30
2017,06,25,10,03,22.40
2017,06,25,10,04,22.40
2017,06,25,10,05,22.40
2017,06,25,10,06,22.30
2017,06,25,10,07,22.20
2017,06,25,10,08,22.20
2017,06,25,10,09,22.10
2017,06,25,10,10,22.00
2017,06,25,10,11,22.10
2017,06,25,10,12,22.20
2017,06,25,10,13,22.30
2017,06,25,10,14,22.30
2017,06,25,10,15,22.30
2017,06,25,10,16,22.40
2017,06,25,10,17,22.50
2017,06,25,10,18,22.50
2017,06,25,10,19,22.50
2017,06,25,10,20,22.50
2017,06,25,10,21,22.60
2017,06,25,10,22,22.70
2017,06,25,10,23,22.60
2017,06,25,10,24,22.60
2017,06,25,10,25,22.60
2017,06,25,10,26,22.50
2017,06,25,10,27,22.50
2017,06,25,10,28,22.50
2017,06,25,10,29,22.50
2017,06,25,10,30,22.60
2017,06,25,10,31,22.60
2017,06,25,10,32,22.60
2017,06,25,10,33,22.60
2017,06,25,10,34,22.50
2017,06,25,10,35,22.40
2017,06,25,10,36,22.40
2017,06,25,10,37,22.40
2017,06,25,10,38,22.40
2017,06,25,10,39,22.30
2017,06,25,10,40,22.30
2017,06,25,10,41,22.30
2017,06,25,10,42,22.40
2017,06,25,10,43,22.50
2017,06,25,10,44,22.50
2017,06,25,10,45,22.60
2017,06,25,10,46,22.60
2017,06,25,10,47,22.70
2017,06,25,10,48,22.90
2017,06,25,10,49,22.90
2017,06,25,10,50,23.10
2017,06,25,10,51,23.10
2017,06,25,10,52,23.20
2017,06,25,10,53,23.30
2017,06,25,10,54,23.30
2017,06,25,10,55,23.30
2017,06,25,10,56,23.10
2017,06,25,10,57,23.00
2017,06,25,10,58,22.90
2017,06,25,10,59,22.90
2017,06,25,11,00,23.00
2017,06,25,11,01,23.10
2017,06,25,11,02,23.20
2017,06,25,11,03,23.30
2017,06,25,11,04,23.30
2017,06,25,11,05,23.20
2017,06,25,11,06,23.00
2017,06,25,11,07,23.00
2017,06,25,11,08,23.10
2017,06,25,11,09,23.10
2017,06,25,11,10,23.10
2017,06,25,11,11,23.10
2017,06,25,11,12,23.20
2017,06,25,11,13,23.20
2017,06,25,11,14,23.00
2017,06,25,11,15,22.90
2017,06,25,11,16,22.90
2017,06,25,11,17,22.90
2017,06,25,11,18,22.90
2017,06,25,11,19,22.90
2017,06,25,11,20,23.00
2017,06,25,11,21,23.10
2017,06,25,11,22,23.30
2017,06,25,11,23,23.30
2017,06,25,11,24,23.40
2017,06,25,11,25,23.50
2017,06,25,11,26,23.60
2017,06,25,11,27,23.70
2017,06,25,11,28,23.80
2017,06,25,11,29,23.90
2017,06,25,11,30,24.00
2017,06,25,11,31,24.10
2017,06,25,11,32,24.10
2017,06,25,11,33,24.10
2017,06,25,11,34,24.10
2017,06,25,11,35,24.10
2017,06,25,11,36,24.10
2017,06,25,11,37,24.10
2017,06,25,11,38,24.10
2017,06,25,11,39,24.10
2017,06,25,11,40,24.10
2017,06,25,11,41,24.10
2017,06,25,11,42,24.10
2017,06,25,11,43,24.10
2017,06,25,11,44,24.10
2017,06,25,11,45,24.10
2017,06,25,11,46,24.10
2017,06,25,11,47,24.10
2017,06,25,11,48,24.20
2017,06,25,11,49,24.20
2017,06,25,11,50,24.00
2017,06,25,11,51,23.90
2017,06,25,11,52,23.80
2017,06,25,11,53,23.80
2017,06,25,11,54,23.80
2017,06,25,11,55,23.70
2017,06,25,11,56,23.70
2017,06,25,11,57,23.70
2017,06,25,11,58,23.70
2017,06,25,11,59,23.80
2017,06,25,12,00,23.80
2017,06,25,12,01,23.90
2017,06,25,12,02,23.90
2017,06,25,12,03,23.90
2017,06,25,12,04,23.90
2017,06,25,12,05,23.70
2017,06,25,12,06,23.80
2017,06,25,12,07,23.80
2017,06,25,12,08,23.90
2017,06,25,12,09,23.90
2017,06,25,12,10,23.90
2017,06,25,12,11,24.10
2017,06,25,12,12,24.00
2017,06,25,12,13,23.90
2017,06,25,12,14,23.90
2017,06,25,12,15,24.10
2017,06,25,12,16,24.10
2017,06,25,12,17,24.10
2017,06,25,12,18,24.10
2017,06,25,12,19,24.20
2017,06,25,12,20,24.20
2017,06,25,12,21,24.20
2017,06,25,12,22,24.30
2017,06,25,12,23,24.30
2017,06,25,12,24,24.30
2017,06,25,12,25,24.40
2017,06,25,12,26,24.50
2017,06,25,12,27,24.70
2017,06,25,12,28,24.80
2017,06,25,12,29,24.90
2017,06,25,12,30,25.00
2017,06,25,12,31,25.00
2017,06,25,12,32,25.00
2017,06,25,12,33,25.10
2017,06,25,12,34,25.00
2017,06,25,12,35,25.00
2017,06,25,12,36,25.00
2017,06,25,12,37,24.90
2017,06,25,12,38,24.80
2017,06,25,12,39,24.70
2017,06,25,12,40,24.70
2017,06,25,12,41,24.80
2017,06,25,12,42,25.00
2017,06,25,12,43,25.00
2017,06,25,12,44,25.00
2017,06,25,12,45,25.00
2017,06,25,12,46,24.90
2017,06,25,12,47,24.90
2017,06,25,12,48,24.90
2017,06,25,12,49,24.90
2017,06,25,12,50,24.90
2017,06,25,12,51,25.00
2017,06,25,12,52,25.00
2017,06,25,12,53,24.90
2017,06,25,12,54,25.00
2017,06,25,12,55,25.10
2017,06,25,12,56,25.10
2017,06,25,12,57,25.30
2017,06,25,12,58,25.30
2017,06,25,12,59,25.20
2017,06,25,13,00,25.20
2017,06,25,13,01,25.10
2017,06,25,13,02,25.00
2017,06,25,13,03,25.00
2017,06,25,13,04,24.80
2017,06,25,13,05,24.70
2017,06,25,13,06,24.60
2017,06,25,13,07,24.60
2017,06,25,13,08,24.50
2017,06,25,13,09,24.60
2017,06,25,13,10,24.70
2017,06,25,13,11,24.80
2017,06,25,13,12,24.90
2017,06,25,13,13,24.90
2017,06,25,13,14,24.90
2017,06,25,13,15,24.90
2017,06,25,13,16,24.90
2017,06,25,13,17,24.90
2017,06,25,13,18,24.90
2017,06,25,13,19,25.00
2017,06,25,13,20,25.00
2017,06,25,13,21,25.20
2017,06,25,13,22,25.20
2017,06,25,13,23,25.10
2017,06,25,13,24,25.10
2017,06,25,13,25,25.00
2017,06,25,13,26,24.80
2017,06,25,13,27,24.90
2017,06,25,13,28,24.90
2017,06,25,13,29,24.80
2017,06,25,13,30,24.80
2017,06,25,13,31,24.90
2017,06,25,13,32,24.90
2017,06,25,13,33,24.80
2017,06,25,13,34,24.80
2017,06,25,13,35,24.90
2017,06,25,13,36,24.90
2017,06,25,13,37,25.00
2017,06,25,13,38,25.00
2017,06,25,13,39,25.00
2017,06,25,13,40,25.00
2017,06,25,13,41,25.10
2017,06,25,13,42,25.20
2017,06,25,13,43,25.20
2017,06,25,13,44,25.30
2017,06,25,13,45,25.40
2017,06,25,13,46,25.40
2017,06,25,13,47,25.40
2017,06,25,13,48,25.40
2017,06,25,13,49,25.40
2017,06,25,13,50,25.40
2017,06,25,13,51,25.40
2017,06,25,13,52,25.50
2017,06,25,13,53,25.50
2017,06,25,13,54,25.60
2017,06,25,13,55,25.70
2017,06,25,13,56,25.80
2017,06,25,13,57,25.80
2017,06,25,13,58,25.90
2017,06,25,13,59,25.90
2017,06,25,14,00,26.00
2017,06,25,14,01,26.00
2017,06,25,14,02,26.00
2017,06,25,14,03,26.00
2017,06,25,14,04,26.10
2017,06,25,14,05,26.10
2017,06,25,14,06,26.10
2017,06,25,14,07,26.20
2017,06,25,14,08,26.20
2017,06,25,14,09,26.20
2017,06,25,14,10,26.20
2017,06,25,14,11,26.10
2017,06,25,14,12,26.10
2017,06,25,14,13,26.10
2017,06,25,14,14,26.10
2017,06,25,14,15,26.20
2017,06,25,14,16,26.30
2017,06,25,14,17,26.30
2017,06,25,14,18,26.30
2017,06,25,14,19,26.30
2017,06,25,14,20,26.40
2017,06,25,14,21,26.50
2017,06,25,14,22,26.60
2017,06,25,14,23,26.60
2017,06,25,14,24,26.60
2017,06,25,14,25,26.60
2017,06,25,14,26,26.70
2017,06,25,14,27,26.80
2017,06,25,14,28,26.80
2017,06,25,14,29,26.80
2017,06,25,14,30,26.80
2017,06,25,14,31,26.80
2017,06,25,14,32,26.80
2017,06,25,14,33,26.90
2017,06,25,14,34,27.10
2017,06,25,14,35,27.20
2017,06,25,14,36,27.20
2017,06,25,14,37,27.10
2017,06,25,14,38,27.10
2017,06,25,14,39,27.20
2017,06,25,14,40,27.20
2017,06,25,14,41,27.30
2017,06,25,14,42,27.30
2017,06,25,14,43,27.30
2017,06,25,14,44,27.10
2017,06,25,14,45,27.10
2017,06,25,14,46,27.10
2017,06,25,14,47,27.20
2017,06,25,14,48,27.20
2017,06,25,14,49,27.30
2017,06,25,14,50,27.40
2017,06,25,14,51,27.50
2017,06,25,14,52,27.60
2017,06,25,14,53,27.60
2017,06,25,14,54,27.60
2017,06,25,14,55,27.60
2017,06,25,14,56,27.70
2017,06,25,14,57,27.70
2017,06,25,14,58,27.80
2017,06,25,14,59,27.90
2017,06,25,15,00,27.90
2017,06,25,15,01,27.80
2017,06,25,15,02,27.80
2017,06,25,15,03,27.70
2017,06,25,15,04,27.70
2017,06,25,15,05,27.70
2017,06,25,15,06,27.70
2017,06,25,15,07,27.80
2017,06,25,15,08,27.70
2017,06,25,15,09,27.70
2017,06,25,15,10,27.70
2017,06,25,15,11,27.70
2017,06,25,15,12,27.70
2017,06,25,15,13,27.80
2017,06,25,15,14,27.80
2017,06,25,15,15,27.90
2017,06,25,15,16,28.00
2017,06,25,15,17,28.00
2017,06,25,15,18,28.00
2017,06,25,15,19,28.00
2017,06,25,15,20,28.00
2017,06,25,15,21,28.00
2017,06,25,15,22,28.00
2017,06,25,15,23,28.10
2017,06,25,15,24,28.00
2017,06,25,15,25,28.00
2017,06,25,15,26,28.10
2017,06,25,15,27,28.10
2017,06,25,15,28,28.20
2017,06,25,15,29,28.20
2017,06,25,15,30,28.20
2017,06,25,15,31,28.20
2017,06,25,15,32,28.20
2017,06,25,15,33,28.20
2017,06,25,15,34,28.30
2017,06,25,15,35,28.30
2017,06,25,15,36,28.30
2017,06,25,15,37,28.30
2017,06,25,15,38,28.40
2017,06,25,15,39,28.60
2017,06,25,15,40,28.70
2017,06,25,15,41,28.90
2017,06,25,15,42,28.90
2017,06,25,15,43,29.00
2017,06,25,15,44,29.10
2017,06,25,15,45,29.10
2017,06,25,15,46,29.10
2017,06,25,15,47,29.10
2017,06,25,15,48,29.10
2017,06,25,15,49,29.10
2017,06,25,15,50,29.20
2017,06,25,15,51,29.20
2017,06,25,15,52,29.20
2017,06,25,15,53,29.30
2017,06,25,15,54,29.40
2017,06,25,15,55,29.50
2017,06,25,15,56,29.50
2017,06,25,15,57,29.50
2017,06,25,15,58,29.40
2017,06,25,15,59,29.40
2017,06,25,16,00,29.40
2017,06,25,16,01,29.30
2017,06,25,16,02,29.30
2017,06,25,16,03,29.30
2017,06,25,16,04,29.30
2017,06,25,16,05,29.30
2017,06,25,16,06,29.30
2017,06,25,16,07,29.30
2017,06,25,16,08,29.30
2017,06,25,16,09,29.30
2017,06,25,16,10,29.30
2017,06,25,16,11,29.30
2017,06,25,16,12,29.40
2017,06,25,16,13,29.30
2017,06,25,16,14,29.30
2017,06,25,16,15,29.30
2017,06,25,16,16,29.30
2017,06,25,16,17,29.30
2017,06,25,16,18,29.30
2017,06,25,16,19,29.30
2017,06,25,16,20,29.20
2017,06,25,16,21,29.30
2017,06,25,16,22,29.30
2017,06,25,16,23,29.30
2017,06,25,16,24,29.30
2017,06,25,16,25,29.20
2017,06,25,16,26,29.20
2017,06,25,16,27,29.20
2017,06,25,16,28,29.10
2017,06,25,16,29,29.10
2017,06,25,16,30,29.10
2017,06,25,16,31,29.10
2017,06,25,16,32,29.10
2017,06,25,16,33,29.00
2017,06,25,16,34,28.90
2017,06,25,16,35,28.90
2017,06,25,16,36,28.90
2017,06,25,16,37,28.90
2017,06,25,16,38,28.80
2017,06,25,16,39,28.70
2017,06,25,16,40,28.70
2017,06,25,16,41,28.70
2017,06,25,16,42,28.80
2017,06,25,16,43,28.90
2017,06,25,16,44,29.00
2017,06,25,16,45,29.10
2017,06,25,16,46,29.30
2017,06,25,16,47,29.40
2017,06,25,16,48,29.40
2017,06,25,16,49,29.50
2017,06,25,16,50,29.60
2017,06,25,16,51,29.70
2017,06,25,16,52,29.70
2017,06,25,16,53,29.80
2017,06,25,16,54,29.90
2017,06,25,16,55,29.90
2017,06,25,16,56,29.90
2017,06,25,16,57,29.90
2017,06,25,16,58,29.90
2017,06,25,16,59,29.90
2017,06,25,17,00,29.90
2017,06,25,17,01,29.90
2017,06,25,17,02,29.90
2017,06,25,17,03,29.90
2017,06,25,17,04,29.80
2017,06,25,17,05,29.80
2017,06,25,17,06,29.70
2017,06,25,17,07,29.60
2017,06,25,17,08,29.50
2017,06,25,17,09,29.30
2017,06,25,17,10,29.20
2017,06,25,17,11,29.00
2017,06,25,17,12,28.90
2017,06,25,17,13,28.90
2017,06,25,17,14,28.80
2017,06,25,17,15,28.80
2017,06,25,17,16,28.70
2017,06,25,17,17,28.60
2017,06,25,17,18,28.60
2017,06,25,17,19,28.50